Tracking 18840 objects as of 19-November-2017
HD Live streaming from Space Station
objects crossing your sky now

OPS 9454

Track OPS 9454 now!
OPS 9454 is classified as:


NORAD ID: 10941
Int'l Code: 1978-058A
Perigee: 29,744.3 km
Apogee: 41,923.2 km
Inclination: 7.7 °
Period: 1,438.1 minutes
Semi major axis: 42204 km
RCS: Unknown
Launch date: June 10, 1978
Source: United States (US)
Launch site: AIR FORCE EASTERN TEST RANGE (AFETR)
aabbcc
Your satellite tracking list
Your tracking list is empty




NASA's NSSDC Master Catalog

Two Line Element Set (TLE):
1 10941U 78058A   17294.51236289 0.00000000  00000-0  00000-0 0    05
2 10941   7.7269  27.6975 1442839 356.9330   2.2908  1.00129355    01
Source of the keplerian elements: McCants